Weather History for Fayetteville, NC

Change the Weather History Date:

Tuesday, September 11, 2012

  Actual Average Record
Temperature  
Mean Temperature 69 °F 75 °F  
Max Temperature 81 °F 85 °F 99 °F (2007)
Min Temperature 56 °F 65 °F 43 °F (1956)
Degree Days  
Heating Degree Days 0 0  
Month to date heating degree days 0 0  
Since 1 July heating degree days 0 0  
Cooling Degree Days 4 10  
Month to date cooling degree days 157 126  
Year to date cooling degree days 1906 1766  
Growing Degree Days 18 (Base 50)    
Moisture  
Dew Point 54 °F    
Average Humidity 68    
Maximum Humidity 100    
Minimum Humidity 35    
Precipitation  
Precipitation 0.00 in 0.13 in 2.54 in (1978)
Month to date precipitation 1.02 1.65  
Year to date precipitation 32.75 33.08  
Sea Level Pressure  
Sea Level Pressure 30.23 in    
Wind  
Wind Speed 4 mph (NE)    
Max Wind Speed 10 mph    
Max Gust Speed 15 mph    
Visibility 10 miles    
Events      
T = Trace of Precipitation, MM = Missing Value Source: NWS Daily Summary

Daily Weather History Graph

Daily Weather History Graph

Search for Another Location

Airport:

Trip Planner

Search our weather history database for the weather conditions in past years. The results will help you decide how hot, cold, wet, or windy it might be!

Date:

Astronomy

Sep. 11, 2012 Rise Set
Actual Time 6:55 AM EDT 7:27 PM EDT
Civil Twilight 6:30 AM EDT 7:52 PM EDT
Nautical Twilight 6:00 AM EDT 8:22 PM EDT
Astronomical Twilight 5:29 AM EDT 8:53 PM EDT
Moon 2:20 AM EDT (9/11) 4:29 PM EDT (9/11)
Length of Visible Light 13h 22m
Length of Day
12h 31m
Waning Crescent, 21% of the Moon is Illuminated
Sep 11
Waning Crescent
Sep 15
New
Sep 22
First Quarter
Sep 29
Full
Oct 8
Last Quarter

Hourly Weather History & Observations

Time (EDT) Temp. Dew Point Humidity Pressure Visibility Wind Dir Wind Speed Gust Speed Precip Events Conditions
12:53 AM 61.0 °F 57.0 °F 87% 30.15 in 10.0 mi Calm Calm - N/A   Clear
1:53 AM 62.1 °F 55.0 °F 78% 30.15 in 10.0 mi Calm Calm - N/A   Clear
2:53 AM 57.0 °F 55.0 °F 93% 30.15 in 10.0 mi NNE 4.6 mph - N/A   Clear
3:53 AM 55.9 °F 55.0 °F 97% 30.16 in 8.0 mi NNE 5.8 mph - N/A   Clear
4:53 AM 55.9 °F 55.0 °F 97% 30.17 in 7.0 mi North 5.8 mph - N/A   Clear
5:53 AM 55.9 °F 55.0 °F 97% 30.19 in 8.0 mi NNE 6.9 mph - N/A   Clear
6:53 AM 55.9 °F 54.0 °F 93% 30.22 in 10.0 mi NNE 4.6 mph - N/A   Clear
7:53 AM 59.0 °F 55.9 °F 90% 30.25 in 10.0 mi NNE 6.9 mph - 0.01 in   Clear
8:53 AM 64.0 °F 57.0 °F 78% 30.26 in 10.0 mi NE 3.5 mph - N/A   Clear
9:53 AM 70.0 °F 55.0 °F 59% 30.28 in 10.0 mi ENE 4.6 mph - N/A   Clear
10:53 AM 73.0 °F 52.0 °F 48% 30.28 in 10.0 mi Variable 4.6 mph - N/A   Clear
11:53 AM 75.9 °F 48.0 °F 37% 30.28 in 10.0 mi ENE 8.1 mph - N/A   Clear
12:53 PM 77.0 °F 50.0 °F 39% 30.28 in 10.0 mi Variable 3.5 mph - N/A   Clear
1:53 PM 78.1 °F 51.1 °F 39% 30.26 in 10.0 mi Variable 5.8 mph - N/A   Clear
2:53 PM 80.1 °F 51.1 °F 36% 30.25 in 10.0 mi NNE 9.2 mph - N/A   Clear
3:53 PM 80.1 °F 50.0 °F 35% 30.23 in 10.0 mi Variable 3.5 mph - N/A   Clear
4:53 PM 80.1 °F 52.0 °F 38% 30.22 in 10.0 mi NE 4.6 mph - N/A   Clear
5:53 PM 79.0 °F 53.1 °F 40% 30.22 in 10.0 mi Variable 3.5 mph - N/A   Clear
7:53 PM 70.0 °F 55.9 °F 61% 30.23 in 10.0 mi East 3.5 mph - N/A   Scattered Clouds
8:53 PM 69.1 °F 57.0 °F 65% 30.25 in 10.0 mi ENE 3.5 mph - N/A   Clear
9:53 PM 66.0 °F 55.9 °F 70% 30.26 in 10.0 mi Calm Calm - N/A   Clear
10:53 PM 63.0 °F 55.9 °F 78% 30.27 in 10.0 mi NE 3.5 mph - N/A   Clear
11:53 PM 63.0 °F 55.0 °F 75% 30.28 in 10.0 mi Calm Calm - N/A   Clear